PKO YORG-YSCB

Flight info

Callsign PKO
Flight time 0h 56m
Altitude 8000
Route VIRUR W654 CWR/N0169F070 W137 AVBEG
Aircraft SR22/L-SDGRY/S

Departure

Time 2026-05-04 07:24
Airport Orange Airport (YORG)

Arrival

Time 2026-05-04 08:21
Airport Canberra Airport (YSCB)
Time Latitude Longitude Altitude Speed Heading
2026-05-04 07:05 -33.38102 149.12444 3089 ft 0 kts 254°
2026-05-04 07:19 -33.38102 149.12434 3106 ft 3 kts 306°
2026-05-04 07:19 -33.38085 149.12455 3106 ft 7 kts 34°
2026-05-04 07:19 -33.38083 149.12476 3106 ft 4 kts 108°
2026-05-04 07:19 -33.38087 149.12501 3106 ft 0 kts 90°
2026-05-04 07:20 -33.38085 149.12502 3106 ft 0 kts 309°
2026-05-04 07:20 -33.38079 149.12496 3106 ft 3 kts 314°
2026-05-04 07:22 -33.38126 149.13004 3106 ft 11 kts 121°
2026-05-04 07:22 -33.38182 149.13107 3106 ft 18 kts 120°
2026-05-04 07:23 -33.38264 149.13239 3106 ft 22 kts 118°
2026-05-04 07:23 -33.38327 149.13343 3106 ft 7 kts 257°
2026-05-04 07:23 -33.38286 149.13273 3106 ft 36 kts 306°
2026-05-04 07:23 -33.38020 149.12825 3132 ft 87 kts 307°
2026-05-04 07:24 -33.37689 149.12287 3562 ft 76 kts 303°
2026-05-04 07:24 -33.37431 149.11746 3883 ft 77 kts 306°
2026-05-04 07:24 -33.37124 149.11169 4168 ft 81 kts 302°
2026-05-04 07:24 -33.36989 149.10508 4433 ft 91 kts 266°
2026-05-04 07:25 -33.37390 149.09884 4769 ft 108 kts 224°
2026-05-04 07:26 -33.42417 149.09182 6753 ft 102 kts 261°
2026-05-04 07:27 -33.42771 149.08424 7043 ft 108 kts 250°
2026-05-04 07:27 -33.43245 149.07711 7301 ft 112 kts 242°
2026-05-04 07:27 -33.43786 149.07031 7567 ft 114 kts 239°
2026-05-04 07:27 -33.44364 149.06377 7821 ft 115 kts 237°
2026-05-04 07:28 -33.44975 149.05720 7995 ft 124 kts 234°
2026-05-04 07:28 -33.45669 149.04994 8022 ft 141 kts 233°
2026-05-04 07:28 -33.46446 149.04197 8021 ft 153 kts 232°
2026-05-04 07:28 -33.47278 149.03348 8020 ft 161 kts 231°
2026-05-04 07:29 -33.48148 149.02464 8016 ft 166 kts 231°
2026-05-04 07:29 -33.49038 149.01560 8011 ft 169 kts 230°
2026-05-04 07:29 -33.49943 149.00641 8012 ft 171 kts 231°
2026-05-04 07:29 -33.50856 148.99712 8010 ft 173 kts 231°
2026-05-04 07:30 -33.51776 148.98776 8020 ft 173 kts 230°
2026-05-04 07:30 -33.52701 148.97838 8020 ft 174 kts 229°
2026-05-04 07:30 -33.53628 148.96891 8020 ft 175 kts 230°
2026-05-04 07:30 -33.54556 148.95948 8014 ft 175 kts 230°
2026-05-04 07:31 -33.55485 148.95005 8020 ft 175 kts 230°
2026-05-04 07:31 -33.56415 148.94056 8016 ft 175 kts 230°
2026-05-04 07:33 -33.62919 148.87420 7997 ft 176 kts 231°
2026-05-04 07:33 -33.63856 148.86466 7998 ft 176 kts 230°
2026-05-04 07:33 -33.64788 148.85516 7996 ft 175 kts 230°
2026-05-04 07:33 -33.65719 148.84562 7985 ft 176 kts 230°
2026-05-04 07:34 -33.66650 148.83612 7990 ft 175 kts 230°
2026-05-04 07:34 -33.67579 148.82662 7995 ft 175 kts 230°
2026-05-04 07:34 -33.68511 148.81708 7998 ft 175 kts 230°
2026-05-04 07:34 -33.69444 148.80757 7995 ft 176 kts 230°
2026-05-04 07:35 -33.70374 148.79803 7992 ft 176 kts 230°
2026-05-04 07:35 -33.71305 148.78850 7990 ft 176 kts 230°
2026-05-04 07:35 -33.72237 148.77896 7993 ft 176 kts 230°
2026-05-04 07:35 -33.73171 148.76940 7995 ft 176 kts 230°
2026-05-04 07:36 -33.74103 148.75987 7997 ft 176 kts 230°
2026-05-04 07:36 -33.75035 148.75035 7993 ft 176 kts 230°
2026-05-04 07:38 -33.81535 148.68373 7991 ft 175 kts 230°
2026-05-04 07:38 -33.82462 148.67418 7993 ft 175 kts 230°
2026-05-04 07:38 -33.83388 148.66465 7996 ft 175 kts 230°
2026-05-04 07:38 -33.84467 148.65722 7992 ft 191 kts 199°
2026-05-04 07:39 -33.85821 148.65904 8006 ft 201 kts 167°
2026-05-04 07:39 -33.87164 148.66400 7998 ft 202 kts 166°
2026-05-04 07:39 -33.88510 148.66913 7998 ft 202 kts 166°
2026-05-04 07:39 -33.89854 148.67430 7992 ft 203 kts 166°
2026-05-04 07:40 -33.91200 148.67954 7994 ft 203 kts 166°
2026-05-04 07:40 -33.92545 148.68476 7997 ft 203 kts 166°
2026-05-04 07:40 -33.93888 148.69000 7995 ft 203 kts 166°
2026-05-04 07:40 -33.95234 148.69527 7991 ft 203 kts 166°
2026-05-04 07:41 -33.96573 148.70053 7994 ft 203 kts 165°
2026-05-04 07:41 -33.97916 148.70576 7996 ft 202 kts 166°
2026-05-04 07:41 -33.99260 148.71104 7993 ft 203 kts 165°
2026-05-04 07:41 -34.00600 148.71630 7996 ft 202 kts 166°
2026-05-04 07:42 -34.01942 148.72153 7997 ft 202 kts 165°
2026-05-04 07:42 -34.03283 148.72681 7993 ft 203 kts 165°
2026-05-04 07:42 -34.04625 148.73207 7997 ft 202 kts 165°
2026-05-04 07:42 -34.05967 148.73732 7995 ft 203 kts 166°
2026-05-04 07:43 -34.07310 148.74259 7995 ft 203 kts 166°
2026-05-04 07:43 -34.08653 148.74789 7992 ft 203 kts 165°
2026-05-04 07:43 -34.10002 148.75319 7989 ft 203 kts 166°
2026-05-04 07:43 -34.11342 148.75849 7985 ft 203 kts 166°
2026-05-04 07:44 -34.12688 148.76376 7988 ft 202 kts 165°
2026-05-04 07:44 -34.14028 148.76907 7989 ft 202 kts 165°
2026-05-04 07:44 -34.15367 148.77434 7988 ft 202 kts 165°
2026-05-04 07:44 -34.16705 148.77960 7986 ft 202 kts 166°
2026-05-04 07:45 -34.18041 148.78485 7986 ft 202 kts 166°
2026-05-04 07:45 -34.19380 148.79011 7984 ft 202 kts 166°
2026-05-04 07:45 -34.20718 148.79537 7985 ft 202 kts 166°
2026-05-04 07:45 -34.22059 148.80066 7982 ft 202 kts 166°
2026-05-04 07:46 -34.23401 148.80595 7981 ft 203 kts 166°
2026-05-04 07:46 -34.24747 148.81126 7981 ft 203 kts 166°
2026-05-04 07:46 -34.26087 148.81655 7983 ft 203 kts 166°
2026-05-04 07:46 -34.27431 148.82185 7985 ft 203 kts 166°
2026-05-04 07:47 -34.28777 148.82717 7984 ft 203 kts 166°
2026-05-04 07:47 -34.30120 148.83248 7982 ft 203 kts 166°
2026-05-04 07:47 -34.31467 148.83778 7984 ft 203 kts 166°
2026-05-04 07:49 -34.40884 148.87504 7986 ft 203 kts 166°
2026-05-04 07:49 -34.42228 148.88037 7986 ft 203 kts 166°
2026-05-04 07:49 -34.43577 148.88571 7985 ft 204 kts 166°
2026-05-04 07:50 -34.44928 148.89107 7986 ft 204 kts 166°
2026-05-04 07:50 -34.46278 148.89642 7984 ft 204 kts 166°
2026-05-04 07:50 -34.47632 148.90180 7987 ft 204 kts 166°
2026-05-04 07:50 -34.48986 148.90717 7986 ft 205 kts 166°
2026-05-04 07:51 -34.50342 148.91255 7985 ft 205 kts 166°
2026-05-04 07:51 -34.51699 148.91794 7986 ft 205 kts 166°
2026-05-04 07:51 -34.53054 148.92332 7981 ft 205 kts 166°
2026-05-04 07:51 -34.54414 148.92873 7982 ft 205 kts 166°
2026-05-04 07:52 -34.55775 148.93414 7983 ft 205 kts 166°
2026-05-04 07:52 -34.57136 148.93954 7986 ft 206 kts 166°
2026-05-04 07:52 -34.58506 148.94499 7983 ft 207 kts 166°
2026-05-04 07:52 -34.59880 148.95047 7982 ft 208 kts 166°
2026-05-04 07:53 -34.61261 148.95596 7995 ft 208 kts 166°
2026-05-04 07:54 -34.70953 148.99461 8008 ft 210 kts 167°
2026-05-04 07:55 -34.72346 149.00017 8008 ft 211 kts 166°
2026-05-04 07:55 -34.73740 149.00574 8007 ft 211 kts 167°
2026-05-04 07:55 -34.75137 149.01131 8004 ft 211 kts 167°
2026-05-04 07:55 -34.76537 149.01691 8007 ft 211 kts 167°
2026-05-04 07:56 -34.77935 149.02249 8009 ft 211 kts 166°
2026-05-04 07:56 -34.79334 149.02808 8008 ft 212 kts 167°
2026-05-04 07:56 -34.80738 149.03370 8009 ft 212 kts 166°
2026-05-04 07:56 -34.82141 149.03932 8011 ft 212 kts 167°
2026-05-04 07:57 -34.83485 149.04693 8012 ft 214 kts 151°
2026-05-04 07:57 -34.84876 149.05147 8001 ft 201 kts 193°
2026-05-04 07:57 -34.86108 149.04588 8018 ft 186 kts 218°
2026-05-04 07:57 -34.87422 149.04189 8017 ft 200 kts 196°
2026-05-04 07:58 -34.88819 149.04058 8004 ft 203 kts 192°
2026-05-04 07:58 -34.90235 149.03986 8006 ft 203 kts 191°
2026-05-04 07:58 -34.91651 149.03933 8001 ft 203 kts 190°
2026-05-04 07:58 -34.93070 149.03885 8003 ft 204 kts 190°
2026-05-04 07:59 -34.94492 149.03838 8000 ft 204 kts 189°
2026-05-04 07:59 -34.95911 149.03792 8004 ft 204 kts 189°
2026-05-04 07:59 -34.97334 149.03746 8004 ft 204 kts 190°
2026-05-04 07:59 -34.98757 149.03700 8001 ft 205 kts 190°
2026-05-04 08:00 -35.00181 149.03653 8001 ft 205 kts 190°
2026-05-04 08:00 -35.01610 149.03607 7997 ft 204 kts 190°
2026-05-04 08:00 -35.03033 149.03560 7999 ft 204 kts 190°
2026-05-04 08:02 -35.12976 149.03237 7995 ft 203 kts 190°
2026-05-04 08:02 -35.14393 149.03191 7995 ft 203 kts 191°
2026-05-04 08:02 -35.15808 149.03145 7997 ft 203 kts 190°
2026-05-04 08:03 -35.17223 149.03099 7992 ft 203 kts 190°
2026-05-04 08:03 -35.18631 149.03053 7990 ft 202 kts 191°
2026-05-04 08:03 -35.20043 149.03007 7997 ft 202 kts 191°
2026-05-04 08:03 -35.21450 149.02961 7999 ft 202 kts 191°
2026-05-04 08:04 -35.22863 149.02914 7997 ft 203 kts 190°
2026-05-04 08:04 -35.24275 149.02869 7997 ft 202 kts 190°
2026-05-04 08:04 -35.25683 149.02822 7995 ft 203 kts 190°
2026-05-04 08:04 -35.27098 149.02776 7995 ft 203 kts 191°
2026-05-04 08:05 -35.28506 149.02730 7996 ft 203 kts 190°
2026-05-04 08:05 -35.29921 149.02683 7998 ft 203 kts 190°
2026-05-04 08:05 -35.31332 149.02638 8000 ft 203 kts 191°
2026-05-04 08:05 -35.32744 149.02592 7997 ft 203 kts 191°
2026-05-04 08:06 -35.34159 149.02545 7994 ft 203 kts 190°
2026-05-04 08:06 -35.35572 149.02499 7999 ft 203 kts 190°
2026-05-04 08:06 -35.36985 149.02453 7997 ft 203 kts 190°
2026-05-04 08:06 -35.38399 149.02406 7999 ft 203 kts 190°
2026-05-04 08:08 -35.48271 149.02083 7999 ft 202 kts 190°
2026-05-04 08:08 -35.49680 149.02036 7999 ft 202 kts 190°
2026-05-04 08:10 -35.58791 149.09459 6483 ft 215 kts 64°
2026-05-04 08:11 -35.58285 149.11153 6308 ft 208 kts 62°
2026-05-04 08:11 -35.57284 149.14317 5943 ft 186 kts 61°
2026-05-04 08:11 -35.56840 149.15705 5743 ft 165 kts 59°
2026-05-04 08:12 -35.56441 149.16945 5551 ft 147 kts 55°
2026-05-04 08:12 -35.55843 149.17747 5428 ft 114 kts 18°
2026-05-04 08:12 -35.55101 149.18246 5413 ft 129 kts 15°
2026-05-04 08:12 -35.54257 149.18743 5401 ft 139 kts 14°
2026-05-04 08:13 -35.53352 149.19241 5388 ft 145 kts 13°
2026-05-04 08:13 -35.52397 149.19456 5390 ft 134 kts 352°
2026-05-04 08:13 -35.51521 149.19470 5362 ft 116 kts 355°
2026-05-04 08:13 -35.50751 149.19582 5119 ft 109 kts 357°
2026-05-04 08:14 -35.49962 149.19618 4928 ft 117 kts 351°
2026-05-04 08:14 -35.49169 149.19624 5013 ft 114 kts 351°
2026-05-04 08:14 -35.48382 149.19647 5044 ft 116 kts 350°
2026-05-04 08:16 -35.42626 149.19459 4107 ft 93 kts 351°
2026-05-04 08:16 -35.41965 149.19452 3985 ft 95 kts 351°
2026-05-04 08:16 -35.41295 149.19450 3842 ft 96 kts 352°
2026-05-04 08:17 -35.40625 149.19448 3703 ft 95 kts 352°
2026-05-04 08:17 -35.39967 149.19448 3576 ft 93 kts 353°
2026-05-04 08:17 -35.39303 149.19446 3449 ft 97 kts 353°
2026-05-04 08:17 -35.38617 149.19446 3314 ft 99 kts 354°
2026-05-04 08:19 -35.34084 149.19463 2427 ft 84 kts 354°
2026-05-04 08:19 -35.33500 149.19453 2336 ft 82 kts 355°
2026-05-04 08:20 -35.32925 149.19448 2243 ft 82 kts 355°
2026-05-04 08:20 -35.32346 149.19442 2079 ft 83 kts 358°
2026-05-04 08:20 -35.31781 149.19442 1935 ft 79 kts 357°
2026-05-04 08:20 -35.31261 149.19443 1879 ft 67 kts 358°
2026-05-04 08:21 -35.30875 149.19442 1870 ft 43 kts
2026-05-04 08:21 -35.30650 149.19443 1869 ft 12 kts 336°
2026-05-04 08:21 -35.30687 149.19386 1868 ft 10 kts 252°
2026-05-04 08:21 -35.30687 149.19342 1868 ft 7 kts 274°
2026-05-04 08:22 -35.30681 149.19262 1868 ft 12 kts 274°
2026-05-04 08:22 -35.30638 149.19166 1867 ft 11 kts 308°
2026-05-04 08:24 -35.30346 149.18600 1852 ft 5 kts 314°
2026-05-04 08:24 -35.30344 149.18596 1852 ft 0 kts 312°
2026-05-04 08:37 -35.30340 149.18590 1852 ft 0 kts 300°